TimeEST,TemperatureF,Dew PointF,Humidity,Sea Level PressureIn,VisibilityMPH,Wind Direction,Wind SpeedMPH,Gust SpeedMPH,PrecipitationIn,Events,Conditions,WindDirDegrees,DateUTC
12:54 AM,30.0,26.1,85,29.98,10.0,West,3.5,-,N/A,,Overcast,280,2013-02-25 05:54:00
1:54 AM,30.0,25.0,82,29.99,10.0,WSW,3.5,-,N/A,,Overcast,240,2013-02-25 06:54:00
2:05 AM,30.2,24.8,80,29.97,10.0,Calm,Calm,-,N/A,,Overcast,0,2013-02-25 07:05:00
2:50 AM,28.4,24.8,86,29.96,10.0,West,4.6,-,N/A,,Mostly Cloudy,260,2013-02-25 07:50:00
2:54 AM,28.9,24.1,82,29.99,10.0,West,3.5,-,N/A,,Mostly Cloudy,260,2013-02-25 07:54:00
3:17 AM,28.4,24.8,86,29.97,10.0,Calm,Calm,-,N/A,,Mostly Cloudy,0,2013-02-25 08:17:00
3:54 AM,28.9,24.1,82,30.01,10.0,Calm,Calm,-,N/A,,Overcast,0,2013-02-25 08:54:00
4:54 AM,28.0,23.0,81,30.03,10.0,Calm,Calm,-,N/A,,Overcast,0,2013-02-25 09:54:00
5:17 AM,26.6,23.0,86,30.00,10.0,South,3.5,-,N/A,,Overcast,190,2013-02-25 10:17:00
5:54 AM,28.0,24.1,85,30.05,9.0,SSW,4.6,-,N/A,,Overcast,200,2013-02-25 10:54:00
6:54 AM,28.0,23.0,81,30.07,9.0,Calm,Calm,-,N/A,,Overcast,0,2013-02-25 11:54:00
7:54 AM,28.9,25.0,85,30.08,8.0,Calm,Calm,-,N/A,,Overcast,0,2013-02-25 12:54:00
8:54 AM,30.9,24.1,76,30.11,10.0,NW,3.5,-,N/A,,Overcast,310,2013-02-25 13:54:00
9:54 AM,32.0,25.0,75,30.12,10.0,Calm,Calm,-,N/A,,Overcast,0,2013-02-25 14:54:00
10:54 AM,33.1,25.0,72,30.12,10.0,Calm,Calm,-,N/A,,Overcast,0,2013-02-25 15:54:00
11:54 AM,34.0,27.0,75,30.13,10.0,Calm,Calm,-,N/A,,Overcast,0,2013-02-25 16:54:00
12:54 PM,35.1,26.1,70,30.14,10.0,West,3.5,-,N/A,,Overcast,280,2013-02-25 17:54:00
1:54 PM,36.0,26.1,67,30.15,10.0,WNW,3.5,-,N/A,,Overcast,300,2013-02-25 18:54:00
2:54 PM,36.0,26.1,67,30.15,10.0,Calm,Calm,-,N/A,,Overcast,0,2013-02-25 19:54:00
3:54 PM,37.9,25.0,60,30.16,10.0,North,3.5,-,N/A,,Overcast,360,2013-02-25 20:54:00
4:54 PM,37.0,26.1,65,30.16,10.0,Calm,Calm,-,N/A,,Mostly Cloudy,0,2013-02-25 21:54:00
5:54 PM,32.0,26.1,79,30.17,10.0,Calm,Calm,-,N/A,,Clear,0,2013-02-25 22:54:00
6:54 PM,30.9,26.1,82,30.20,10.0,South,3.5,-,N/A,,Overcast,180,2013-02-25 23:54:00
7:54 PM,32.0,26.1,79,30.22,10.0,Calm,Calm,-,N/A,,Overcast,0,2013-02-26 00:54:00
8:37 PM,32.0,26.6,80,30.18,10.0,Calm,Calm,-,N/A,,Overcast,0,2013-02-26 01:37:00
8:54 PM,32.0,26.1,79,30.22,10.0,Calm,Calm,-,N/A,,Overcast,0,2013-02-26 01:54:00
9:04 PM,30.2,26.6,86,30.19,10.0,Calm,Calm,-,N/A,,Mostly Cloudy,0,2013-02-26 02:04:00
9:54 PM,30.0,25.0,82,30.22,10.0,ESE,3.5,-,N/A,,Overcast,120,2013-02-26 02:54:00
10:54 PM,30.0,24.1,79,30.23,10.0,SSE,4.6,-,N/A,,Overcast,160,2013-02-26 03:54:00
11:54 PM,30.0,25.0,82,30.24,10.0,Calm,Calm,-,N/A,,Overcast,0,2013-02-26 04:54:00